User: anonymous   Login
Location: SAPM � Hemmingford
(45.0500°N, 73.5833°W)
Time: 15:25:14
(UTC-05:00)
Language:

Cosmos 1674 Rocket - Orbit

View from above orbital plane
View from above orbital plane
View from above satellite
View from above satellite

Ground track
Ground track

The orbit data is extracted from the following two-line orbital elements,

1 15945U 85069B   17021.82758679 +.00000082 +00000-0 +68863-5 0  9991
2 15945 082.5278 270.0778 0020920 048.2215 312.0784 14.83904596678245
Epoch (UTC): 21 January 2017 19:51:43
Eccentricity: 0.0020920
inclination: 82.5278°
perigee height: 602 km
apogee height: 631 km
right ascension of ascending node: 270.0778°
argument of perigee: 48.2215°
revolutions per day: 14.83904596
mean anomaly at epoch: 312.0784°
orbit number at epoch: 67824

The dashed part of the orbit path shows where the satellite is in the earth's shadow,  

DLR